STARLINK-34892, 65350

Orbit data source: Space-Track

STARLINK-34892, 65350 is a payload satellite owned by SpaceX/Seattle (US) in LEO that was launched on Wed, 27 Aug 2025 UTC via an FALCON 9 launch vehicle from the Air Force Eastern Test Range (AFETR). Payload-class satellites include a variety of spacecraft equipped with specific instruments for various scientific and technological missions. These include communications satellites like Starlink; space stations such as the ISS; scientific satellites like the Hubble; Earth observation satellites from companies like Planet Labs, Umbra, and HawkEye 360; GPS; miniature CubeSats for education and research; and military/defense satellites.

Loading next visibility...
Identifier
65350, 2025-189AD
Orbit
LEO
Country
Flag of USUS
Related business
Manufacturer
SpaceX/Seattle
Mission
Operational Commercial Communications
Bus & Motor
STARLINK V2MO, Unknown motor
Mass
575 kg wet, ~530 kg dry
Launch date (UTC)
2025-08-27 (10 months ago)
Launch vehicle
FALCON 9
Launch site
Air Force Eastern Test Range (AFETR)
Object type
Payload
Rocket body
Debris
Shape & HBR
Box + 2 Pan, 17.7 m
Radar Cross Section
36.964 m², Large (>1 m²)

Expand to show TLE details & history
Last TLE update: 15 hours ago

TLE from 15 hours ago
0 STARLINK-34892
1 65350U 25189AD  26171.21065838  .00019140  00000-0  62647-3 0  9997
2 65350  53.1588  89.8028 0001519  88.8931 271.2244 15.31724363 46769
Epoch: 2026-06-20T05:03Z
TLE epoch observation values (Epoch: 2026-06-20T05:03:20.884Z)
Latitude
-0.00003°
Longitude
105.53721°
Altitude
471.545 km
Speed
7.632 km/s
True Right ascension
05h 59m 12s
True Declination
0° 00' 00"
Sunlit
Object was in daylight at epoch
Visualization orbit readout
Latitude
Unknown
Longitude
Unknown
Altitude
Unknown
Speed
Unknown
Apparent Right ascension
Unknown
Apparent Declination
Unknown
Sunlit
N/A
Visualization observer readout
Local Sidereal Time
07:17:08
Azimuth
Unknown
Elevation
Unknown
Doppler factor
Unknown
Orbital elements
Apogee altitude
471.965 km
Perigee altitude
469.884 km
Semi-major axis
6,849.061 km
Eccentricity
0.00015
Inclination
53.1588°
RAAN
89.8028°
Arg. of periapsis
88.8931°
True anomaly
271.207°
Mean anomaly
271.2244°
Eccentric anomaly
271.2157°
Mean motion
3.8291 °/min
Orbital period
94.02 mins
BSTAR
0.00062647
Loading maneuver chart data...
Computing Atmospheric mass density...
Loading historical data...
Loading historical data...
Loading historical data...
Loading historical data...
Loading historical data...
Loading historical data...
Loading historical data...

Documentation

Showing up to 5 results
|